sat.trackr.live / text

‹ back to catalog

STARLINK-32039

NORAD 60604 · 2024-150X

PAYLOAD ACTIVE UNKNOWN

§ Identity

Operator
Country
US
Launch date
2024-08-20
Launch site
AFETR
Launch vehicle
Mass (kg)
RCS (m²)

Purposes: comms

External: N2YO · Heavens-Above · Gunter

§ Orbital elements

Epoch: 2026-09-21T19:48:43.334784Z

Period
93.85 min
Inclination
53.1605°
Eccentricity
0.0001347
Mean motion
15.34389387 rev/d
Perigee alt
461.8 km
Apogee alt
463.7 km
Semi-major
6,840.9 km
B*
1.8826e-5
RAAN
117.2053°
Arg perigee
102.1475°
Mean anomaly
257.9679°
Rev number
11,805

§ Raw data

STARLINK-320391 60604U 24150X   26264.82550156  .00000260  00000+0  18826-4 0  99962 60604  53.1605 117.2053 0001347 102.1475 257.9679 15.34389387118053

JSON: /api/v1/satellites/60604 · /tle

For live sub-satellite position, see the globe view (requires WebGL).

§ Visibility from observer

Set your observer location to see the next 7 days of passes ≥ 10°. The values pass through the URL so the page stays shareable.

No JS? Fill the form by hand. The geolocation button needs JavaScript.